IRIDIUM 33 DEB, 34833

Orbit data source: Space-Track

IRIDIUM 33 DEB, 34833 is space debris in LEO originally from a launch on Sun, 14 Sep 1997 UTC launched from the Tyuratam Missile And Space Complex (TTMTR). The debris from Iridium 33, an American commercial communications satellite, has been tracked extensively since its accidental collision with the defunct Russian satellite Cosmos 2251 in 2009. This event, occurring at high speed in low Earth orbit (LEO), generated thousands of pieces of space debris, significantly increasing the risk of further collisions. The Iridium 33 debris cloud has impacted space traffic management and orbital debris mitigation strategies, making it a subject of ongoing study in space situational awareness.

Loading next visibility...
Identifier
34833, 1997-051MH
Orbit
LEO
Country
Flag of USUS
Related business
Manufacturer
Unknown
Mission
Spacecraft
Bus & Motor
Unknown
Mass
Unknown
Launch date (UTC)
1997-09-14 (28 years ago)
Launch vehicle
Unknown
Launch site
Tyuratam Missile And Space Complex (TTMTR)
Object type
Payload
Rocket body
Debris
Shape & HBR
Unknown shape, 0.1 m
Radar Cross Section
Small (<0.1 m²)

Expand to show TLE details & history
Last TLE update: 17 hours ago

TLE from 17 hours ago
0 IRIDIUM 33 DEB
1 34833U 97051MH  25294.37530014  .00006104  00000-0  15093-2 0  9999
2 34833  86.3904  73.5482 0018158 272.9935 117.8387 14.51814805869557
Epoch: 2025-10-21T09:00Z
TLE epoch observation values (Epoch: 2025-10-21T09:00:25.932Z)
Latitude
31.00222°
Longitude
-89.4632°
Altitude
729.832 km
Speed
7.49 km/s
True Right ascension
05h 02m 50s
True Declination
30° 51' 00"
Sunlit
Object was in full shadow at epoch
Visualization orbit readout
Latitude
Unknown
Longitude
Unknown
Altitude
Unknown
Speed
Unknown
Apparent Right ascension
Unknown
Apparent Declination
Unknown
Sunlit
N/A
Visualization observer readout
Local Sidereal Time
21:31:29
Azimuth
Unknown
Elevation
Unknown
Doppler factor
Unknown
Orbital elements
Apogee altitude
729.55 km
Perigee altitude
703.784 km
Semi-major axis
7,094.804 km
Eccentricity
0.00182
Inclination
86.3904°
RAAN
73.5482°
Arg. of periapsis
272.9935°
True anomaly
118.0225°
Mean anomaly
117.8387°
Eccentric anomaly
117.93062°
Mean motion
3.63189 °/min
Orbital period
99.12 mins
BSTAR
0.0015093
Loading maneuver chart data...
Computing Atmospheric mass density...

Documentation

Showing up to 5 results
|